When you browse on this site, cookies collect data to enhance your experience and personalize the content and advertising you see.
Visit our Privacy Policy to learn more. By continuing to use the site, you agree to this use of cookies and data.
  • In Denmark
  • List of Countries
  • For 7 days
  • Water Temperature
  • Weather Map
  • Weather Widgets
  • user-avatar
    Login

    Hourly Weather Krasnaya Buda

    Today, 21 February, Friday

    Time Temperature Precipitation Wind Pressure Humidity
    00:00 +2°C° 0 mm 2 mps 750 mmHg 92%
    01:00 +1°C° 0 mm 2 mps 750 mmHg 93%
    02:00 +1°C° 0 mm 2 mps 750 mmHg 93%
    03:00 +1°C° 0 mm 2 mps 750 mmHg 93%
    04:00 +1°C° 0 mm 2 mps 750 mmHg 93%
    05:00 +1°C° 0 mm 2 mps 749 mmHg 94%
    06:00 +1°C° 0 mm 2 mps 750 mmHg 93%
    07:00 +1°C° 0 mm 2 mps 750 mmHg 93%
    08:00 +1°C° 0 mm 2 mps 750 mmHg 93%
    15:00 +3°C° 0 mm 4 mps 749 mmHg 76%
    16:00 +3°C° 0 mm 3 mps 749 mmHg 80%
    17:00 +2°C° 0 mm 3 mps 749 mmHg 84%
    18:00 +1°C° 0 mm 3 mps 750 mmHg 86%
    19:00 +1°C° 0 mm 3 mps 750 mmHg 88%
    20:00 -1°C° 0 mm 4 mps 750 mmHg 90%
    21:00 -1°C° 0 mm 4 mps 751 mmHg 89%
    22:00 0°C° 0 mm 3 mps 751 mmHg 89%
    23:00 0°C° 0 mm 3 mps 751 mmHg 89%

    Tomorrow, 22 February, Saturday

    Time Temperature Precipitation Wind Pressure Humidity
    00:00 0°C° 0 mm 3 mps 751 mmHg 89%
    01:00 -1°C° 0 mm 4 mps 751 mmHg 90%
    02:00 0°C° 0 mm 4 mps 751 mmHg 91%
    03:00 -1°C° 0 mm 4 mps 751 mmHg 91%
    04:00 -1°C° 0 mm 4 mps 751 mmHg 92%
    05:00 -2°C° 0 mm 4 mps 751 mmHg 92%
    06:00 -2°C° 0 mm 4 mps 752 mmHg 91%
    07:00 -2°C° 0 mm 4 mps 752 mmHg 90%
    08:00 -2°C° 0 mm 4 mps 752 mmHg 89%
    09:00 -1°C° 0 mm 4 mps 752 mmHg 85%
    10:00 0°C° 0 mm 5 mps 752 mmHg 81%
    11:00 +1°C° 0 mm 5 mps 751 mmHg 77%
    12:00 +1°C° 0 mm 5 mps 751 mmHg 76%
    13:00 +2°C° 0 mm 6 mps 751 mmHg 76%
    14:00 +2°C° 0 mm 6 mps 750 mmHg 75%
    15:00 +1°C° 0 mm 6 mps 750 mmHg 76%
    16:00 +1°C° 0 mm 6 mps 749 mmHg 78%
    17:00 +1°C° 0 mm 6 mps 748 mmHg 79%
    18:00 +1°C° 0 mm 6 mps 747 mmHg 79%
    19:00 0°C° 0 mm 7 mps 746 mmHg 79%
    20:00 -1°C° 0 mm 7 mps 746 mmHg 80%
    21:00 -1°C° 0 mm 8 mps 744 mmHg 80%
    22:00 -1°C° 0 mm 8 mps 743 mmHg 80%
    23:00 -1°C° 0 mm 9 mps 742 mmHg 80%

    Day after tomorrow, 23 February, Sunday

    Time Temperature Precipitation Wind Pressure Humidity
    00:00 -1°C° 1.1 mm 9 mps 741 mmHg 85%
    01:00 -3°C° 1.1 mm 10 mps 740 mmHg 90%
    02:00 -3°C° 1.1 mm 10 mps 738 mmHg 95%
    03:00 -3°C° 1.3 mm 9 mps 737 mmHg 96%
    04:00 -1°C° 1.3 mm 9 mps 736 mmHg 96%
    05:00 -1°C° 1.3 mm 8 mps 735 mmHg 96%
    06:00 -1°C° 0.5 mm 8 mps 735 mmHg 94%
    07:00 0°C° 0.5 mm 8 mps 734 mmHg 93%
    08:00 0°C° 0.5 mm 8 mps 734 mmHg 91%
    09:00 0°C° 0.3 mm 7 mps 734 mmHg 89%
    10:00 +1°C° 0.3 mm 6 mps 734 mmHg 88%
    11:00 +1°C° 0.3 mm 6 mps 734 mmHg 86%
    12:00 +1°C° 0.3 mm 6 mps 735 mmHg 81%
    13:00 0°C° 0.3 mm 7 mps 735 mmHg 76%
    14:00 +2°C° 0.3 mm 7 mps 735 mmHg 71%
    15:00 +1°C° 0 mm 6 mps 735 mmHg 71%
    16:00 +1°C° 0 mm 5 mps 735 mmHg 72%
    17:00 0°C° 0 mm 5 mps 735 mmHg 73%
    18:00 0°C° 0 mm 5 mps 735 mmHg 75%
    19:00 -1°C° 0 mm 5 mps 735 mmHg 77%
    20:00 -1°C° 0 mm 5 mps 735 mmHg 79%
    21:00 -1°C° 0 mm 5 mps 735 mmHg 79%
    22:00 -1°C° 0 mm 5 mps 734 mmHg 80%
    23:00 -2°C° 0 mm 5 mps 734 mmHg 80%

    24 February, Monday

    Time Temperature Precipitation Wind Pressure Humidity
    00:00 -2°C° 0 mm 5 mps 734 mmHg 81%
    01:00 -2°C° 0 mm 4 mps 734 mmHg 83%
    02:00 -3°C° 0 mm 4 mps 733 mmHg 84%
    03:00 -3°C° 0 mm 4 mps 733 mmHg 85%
    04:00 -3°C° 0 mm 4 mps 733 mmHg 86%
    05:00 -3°C° 0 mm 4 mps 732 mmHg 87%
    06:00 -3°C° 0 mm 4 mps 733 mmHg 87%
    07:00 -3°C° 0 mm 4 mps 733 mmHg 87%
    08:00 -3°C° 0 mm 4 mps 733 mmHg 87%
    09:00 -2°C° 0.1 mm 5 mps 734 mmHg 83%
    10:00 -1°C° 0.1 mm 5 mps 734 mmHg 79%
    11:00 0°C° 0.1 mm 5 mps 734 mmHg 75%
    12:00 +1°C° 0 mm 6 mps 735 mmHg 69%
    13:00 +1°C° 0 mm 6 mps 735 mmHg 64%
    14:00 +2°C° 0 mm 7 mps 735 mmHg 58%
    15:00 0°C° 0 mm 7 mps 736 mmHg 62%
    16:00 -1°C° 0 mm 6 mps 737 mmHg 65%
    17:00 -2°C° 0 mm 6 mps 738 mmHg 69%
    18:00 -3°C° 0 mm 6 mps 739 mmHg 69%
    19:00 -3°C° 0 mm 6 mps 740 mmHg 69%
    20:00 -2°C° 0 mm 5 mps 740 mmHg 69%
    21:00 -4°C° 0 mm 5 mps 741 mmHg 70%
    22:00 -4°C° 0 mm 5 mps 742 mmHg 70%
    23:00 -4°C° 0 mm 5 mps 742 mmHg 71%

    25 February, Tuesday

    Time Temperature Precipitation Wind Pressure Humidity
    00:00 -4°C° 0 mm 5 mps 743 mmHg 70%
    01:00 -5°C° 0 mm 5 mps 743 mmHg 70%
    02:00 -5°C° 0 mm 5 mps 744 mmHg 69%
    03:00 -4°C° 0 mm 4 mps 744 mmHg 70%
    04:00 -4°C° 0 mm 4 mps 744 mmHg 70%
    05:00 -4°C° 0 mm 4 mps 745 mmHg 71%
    06:00 -4°C° 0 mm 3 mps 745 mmHg 72%
    07:00 -4°C° 0 mm 3 mps 745 mmHg 72%
    08:00 -4°C° 0 mm 3 mps 746 mmHg 73%
    09:00 -2°C° 0 mm 3 mps 746 mmHg 66%
    10:00 -1°C° 0 mm 3 mps 745 mmHg 60%
    11:00 0°C° 0 mm 3 mps 745 mmHg 53%
    12:00 0°C° 0 mm 3 mps 745 mmHg 51%
    13:00 -1°C° 0 mm 4 mps 744 mmHg 50%
    14:00 0°C° 0 mm 5 mps 744 mmHg 49%
    15:00 -1°C° 0 mm 5 mps 743 mmHg 51%
    16:00 -1°C° 0 mm 5 mps 743 mmHg 53%
    17:00 -1°C° 0 mm 5 mps 742 mmHg 55%
    18:00 -1°C° 0 mm 5 mps 742 mmHg 58%
    19:00 -2°C° 0 mm 6 mps 742 mmHg 60%
    20:00 -2°C° 0 mm 6 mps 741 mmHg 63%
    21:00 -2°C° 0 mm 6 mps 741 mmHg 69%
    22:00 -2°C° 0 mm 6 mps 741 mmHg 76%
    23:00 -2°C° 0 mm 6 mps 740 mmHg 82%

    26 February, Wednesday

    Time Temperature Precipitation Wind Pressure Humidity
    00:00 -2°C° 0 mm 6 mps 740 mmHg 84%
    01:00 -1°C° 0 mm 6 mps 740 mmHg 85%
    02:00 -1°C° 0 mm 6 mps 739 mmHg 86%
    03:00 -1°C° 0.1 mm 6 mps 739 mmHg 86%
    04:00 -1°C° 0.1 mm 6 mps 739 mmHg 85%
    05:00 0°C° 0.1 mm 5 mps 738 mmHg 85%
    06:00 0°C° 0 mm 5 mps 738 mmHg 85%
    07:00 0°C° 0 mm 5 mps 738 mmHg 84%
    08:00 0°C° 0 mm 5 mps 738 mmHg 84%
    09:00 -1°C° 0 mm 6 mps 738 mmHg 82%
    10:00 +1°C° 0 mm 6 mps 738 mmHg 79%
    11:00 +1°C° 0 mm 6 mps 738 mmHg 77%
    12:00 +1°C° 0 mm 6 mps 737 mmHg 76%
    13:00 +2°C° 0 mm 6 mps 737 mmHg 75%
    14:00 +2°C° 0 mm 6 mps 737 mmHg 74%
    15:00 +2°C° 0.1 mm 6 mps 736 mmHg 79%
    16:00 +1°C° 0.1 mm 5 mps 736 mmHg 83%
    17:00 0°C° 0.1 mm 5 mps 735 mmHg 87%
    18:00 0°C° 0.3 mm 5 mps 735 mmHg 90%
    19:00 0°C° 0.3 mm 5 mps 735 mmHg 93%
    20:00 0°C° 0.3 mm 5 mps 735 mmHg 96%
    21:00 0°C° 0.3 mm 5 mps 734 mmHg 96%
    22:00 0°C° 0.3 mm 5 mps 734 mmHg 97%
    23:00 0°C° 0.3 mm 5 mps 734 mmHg 97%
    Show more